Tracking 30746 objects as of 20-Jun-2025
HD Live streaming from Space Station
objects crossing your sky now

COSMOS 1275 DEB

Track COSMOS 1275 DEB now!
10-day predictions


NORAD ID: 42175
Int'l Code: 1981-053SP
Perigee: 976.1 km
Apogee: 1,185.4 km
Inclination: 83.0 °
Period: 106.7 minutes
Semi major axis: 7451 km
RCS: Unknown
Launch date: June 4, 1981
Source: Commonwealth of Independent States (former USSR) (CIS)
Launch site: PLESETSK MISSILE AND SPACE COMPLEX (PKMTR)

Note: This is SATELLITE DEBRIS
Your satellite tracking list
Your tracking list is empty




NASA's NSSDC Master Catalog

Two Line Element Set (TLE):
1 42175U 81053SP  25164.53968420  .00000185  00000-0  25197-3 0  9992
2 42175  83.0299  83.3917 0140414 130.2930  50.0448 13.49633597569578
Source of the keplerian elements: AFSPC